Find Starlink 3366

NORAD ID: 51104 Int'l Des: 2022-005 Owner: SPXS Country: US Constellation: starlink operational
LEOCIRCULAR

Live Position

Loading 3D Globe...

About Starlink 3366

Description loading...

Upcoming Passes

Passes for default location (London). Set your location on the main map for personalized predictions.

Altitude History

Loading altitude history...

Two-Line Element Set

1 51104U 22005A 26109.27844809 -.00000362 00000-0 -46389-5 0 9998
2 51104 53.2166 106.9108 0001218 78.1474 281.9655 15.08837459235000
Epoch: Apr 19, 2026 • Age: 20 hours

Current Status

Altitude 547.0 km
Velocity 7.59 km/s
Sub-Earth Point -23.46°S, 53.51°E
Launch Date Jan 19, 2022
Age 4.2 years
Type internet

Technical Details

Classification Payload
Mass 297.00 kg
Dry Mass 275.00 kg
Total Mass 297.00 kg
Length 0.20 m
Diameter 2.80 m
Span 9.00 m
Shape Box + pan
Manufacturer SPXS
Bus Type Starlink
Phase Status In Orbit
Owner/State SPXS/US

Most Searched